Location: Newark
(22.3060°N, 114.2134°E)
Time: 07:35:48
(UTC+00:00)

Explorer 11/Cluster Stage 4 - Pass Details

Date: 29 July 2021
Orbit: 467 x 1256 km, 28.8° (Epoch: 24 September)

Event Time Altitude Azimuth Distance (km) Brightness Sun altitude
Rises 03:34:58 0° 269° (W) 4,194 10.2 76.7°
Reaches altitude 10° 03:38:01 10° 273° (W) 3,216 9.7 77.4°
Maximum altitude 03:46:03 57° 351° (N) 1,356 8.8 79.2°
Drops below altitude 10° 03:53:10 10° 69° (ENE) 2,859 9.7 80.7°
Sets 03:55:44 0° 73° (ENE) 3,703 10.1 81.3°
